シャイン-シャルダハ彗星

61P/Shajn-Schaldach (2022)

English version
Home page
Updated on July 16, 2022

---------------------------------------------------------------------

・ プロフィール

・ 写真集

・ 軌道要素

Epoch 2022 Aug. 9.0 TT = JDT 2459800.5
T 2022 Oct. 23.86761 TT                                 Rudenko
q   2.1257727            (2000.0)            P               Q
n   0.13891717     Peri.  221.67931     +0.90783577     -0.41820659
a   3.6923152      Node   162.96653     +0.40704936     +0.86136603
e   0.4242711      Incl.    5.99969     +0.10072255     +0.28836056
P   7.09
From 1603 observations 2000 Apr. 22-2022 June 6, mean residual 1".0.
     Nongravitational parameters A1 = -0.69, A2 = -0.2696.

・ 星図

・ 光度変化

        m1 = 11.5 + 5 logΔ + 10.0 log r(t + 65)

---------------------------------------------------------------------

軌道要素はM.P.E.C. 2022-L66に掲載されたものです。
星図はステラナビゲータ Ver.10 (アストロアーツ) で作成したものです。
光度グラフはComet for Windowsで作成したものです。

---------------------------------------------------------------------

Copyright(C) Seiichi Yoshida (comet@aerith.net). All rights reserved.